Las Vegas, NM

9:51 PM MST on February 08, 2016 (GMT -0700)
Las Vegas Municipal

Weather History for KLVS - December, 2013

Change the Weather History Date:

Thursday, December 26, 2013

  Actual Average Record
Temperature  
Mean Temperature 36 °F -  
Max Temperature 52 °F 43 °F 66 °F (2005)
Min Temperature 19 °F 19 °F -4 °F (1962)
Degree Days  
Heating Degree Days 30    
Moisture  
Dew Point 12 °F    
Average Humidity 45    
Maximum Humidity 78    
Minimum Humidity 17    
Precipitation  
Precipitation 0.00 in - - ()
Sea Level Pressure  
Sea Level Pressure 30.27 in    
Wind  
Wind Speed 7 mph (NNE)    
Max Wind Speed 17 mph    
Max Gust Speed -    
Visibility 10 miles    
Events      
Averages and records for this station are not official NWS values.
T = Trace of Precipitation, MM = Missing Value Source: NWS Daily Summary

Daily Weather History Graph

Daily Weather History Graph

Search for Another Location

Airport or City:

Trip Planner

Search our weather history database for the weather conditions in past years. The results will help you decide how hot, cold, wet, or windy it might be!

Date:

Astronomy

Dec. 26, 2013 Rise Set
Actual Time 7:08 AM MST 4:54 PM MST
Civil Twilight 6:40 AM MST 5:22 PM MST
Nautical Twilight 6:08 AM MST 5:54 PM MST
Astronomical Twilight 5:37 AM MST 6:25 PM MST
Moon 12:48 AM MST (12/26) 12:23 PM MST (12/26)
Length of Visible Light 10h 42m
Length of Day
9h 45m
Last Quarter, 38% of the Moon is Illuminated
Dec 26
Last Quarter
Jan 1
New
Jan 7
First Quarter
Jan 15
Full
Jan 23
Last Quarter

Hourly Weather History & Observations

Time (MST) Temp. Windchill Dew Point Humidity Pressure Visibility Wind Dir Wind Speed Gust Speed Precip Events Conditions
12:53 AM 21.0 °F 11.4 °F 15.1 °F 78% 30.35 in 10.0 mi SSW 8.1 mph - N/A   Clear
1:53 AM 23.0 °F 18.4 °F 16.0 °F 74% 30.31 in 10.0 mi SW 3.5 mph - N/A   Clear
2:53 AM 21.0 °F 16.2 °F 14.0 °F 74% 30.31 in 10.0 mi NNE 3.5 mph - N/A   Clear
3:53 AM 23.0 °F 17.0 °F 10.9 °F 60% 30.28 in 10.0 mi NNW 4.6 mph - N/A   Clear
4:53 AM 21.0 °F 16.2 °F 10.9 °F 65% 30.30 in 10.0 mi NE 3.5 mph - N/A   Clear
5:53 AM 19.0 °F 13.9 °F 10.9 °F 71% 30.32 in 10.0 mi NE 3.5 mph - N/A   Clear
6:53 AM 27.0 °F 21.6 °F 6.1 °F 41% 30.29 in 10.0 mi North 4.6 mph - N/A   Clear
7:53 AM 28.9 °F 23.9 °F 7.0 °F 40% 30.27 in 10.0 mi NW 4.6 mph - N/A   Clear
8:53 AM 33.1 °F 27.7 °F 16.0 °F 50% 30.26 in 10.0 mi North 5.8 mph - N/A   Clear
9:53 AM 41.0 °F 35.2 °F 15.1 °F 35% 30.25 in 10.0 mi North 9.2 mph - N/A   Clear
10:53 AM 48.9 °F - 14.0 °F 25% 30.20 in 10.0 mi North 10.4 mph - N/A   Clear
11:53 AM 52.0 °F - 8.1 °F 17% 30.17 in 10.0 mi North 8.1 mph - N/A   Clear
12:53 PM 51.1 °F - 12.9 °F 22% 30.16 in 10.0 mi ENE 11.5 mph - N/A   Clear
1:53 PM 50.0 °F - 10.9 °F 21% 30.15 in 10.0 mi ENE 17.3 mph - N/A   Clear
2:53 PM 48.9 °F - 10.9 °F 22% 30.18 in 10.0 mi ENE 16.1 mph - N/A   Clear
3:53 PM 46.0 °F 41.4 °F 16.0 °F 30% 30.20 in 10.0 mi ENE 9.2 mph - N/A   Clear
4:53 PM 37.9 °F 32.7 °F 18.0 °F 45% 30.26 in 10.0 mi ENE 6.9 mph - N/A   Clear
5:53 PM 35.1 °F 29.3 °F 16.0 °F 46% 30.31 in 10.0 mi ENE 6.9 mph - N/A   Clear
6:53 PM 36.0 °F 31.1 °F 12.0 °F 37% 30.29 in 10.0 mi NE 5.8 mph - N/A   Clear
7:53 PM 32.0 °F 25.6 °F 12.9 °F 45% 30.32 in 10.0 mi North 6.9 mph - N/A   Clear
8:53 PM 28.9 °F 21.9 °F 12.0 °F 49% 30.34 in 10.0 mi North 6.9 mph - N/A   Clear
9:53 PM 28.9 °F 21.9 °F 10.9 °F 47% 30.32 in 10.0 mi NNE 6.9 mph - N/A   Clear
10:53 PM 28.0 °F 21.7 °F 10.9 °F 49% 30.29 in 10.0 mi North 5.8 mph - N/A   Clear
11:53 PM 28.9 °F 22.8 °F 10.9 °F 47% 30.27 in 10.0 mi North 5.8 mph - N/A   Clear